This is the latest recevied weather packets stored in our database for station/object KP4OZ. If no packets are shown the sender has not sent any weather packets the latest 10 day(s).
| Time | Temp. | Humidity | Pressure | Rain* | Wind** | Luminosity | Snow |
|---|---|---|---|---|---|---|---|
| 1777893916 | 27.78° C | 73% | 1017.4 hPa | 0 mm | - | - | - |
| 1777893612 | 27.78° C | 74% | 1017.4 hPa | 0 mm | - | - | - |
| 1777893309 | 27.78° C | 75% | 1017.2 hPa | 0 mm | - | - | - |
| 1777893005 | 27.78° C | 76% | 1017.2 hPa | 0 mm | - | - | - |
| 1777892703 | 27.22° C | 78% | 1017.1 hPa | 0 mm | - | - | - |
| 1777892398 | 26.67° C | 80% | 1017.1 hPa | 0 mm | - | - | - |
| 1777892094 | 26.11° C | 81% | 1017.2 hPa | 0 mm | - | - | - |
| 1777891791 | 26.11° C | 82% | 1017 hPa | 0 mm | - | - | - |
| 1777891488 | 25.56° C | 83% | 1017.1 hPa | 0 mm | - | - | - |
| 1777891184 | 25.56° C | 85% | 1016.9 hPa | 0 mm | - | - | - |
| 1777890883 | 25° C | 86% | 1017 hPa | 0 mm | - | - | - |
| 1777890580 | 24.44° C | 87% | 1017 hPa | 0 mm | - | - | - |
| 1777890275 | 24.44° C | 87% | 1017.1 hPa | 0 mm | - | - | - |
| 1777889972 | 24.44° C | 87% | 1017 hPa | 0 mm | - | - | - |
| 1777889670 | 24.44° C | 87% | 1016.6 hPa | 0 mm | - | - | - |
| 1777889367 | 24.44° C | 86% | 1016.9 hPa | 0 mm | - | - | - |
| 1777889065 | 24.44° C | 85% | 1017 hPa | 0 mm | - | - | - |
| 1777888761 | 24.44° C | 85% | 1016.8 hPa | 0 mm | - | - | - |
| 1777888458 | 25° C | 85% | 1016.7 hPa | 0 mm | - | - | - |
| 1777888154 | 25° C | 84% | 1016.8 hPa | 0 mm | - | - | - |
| 1777887852 | 25° C | 84% | 1016.7 hPa | 0 mm | - | - | - |
| 1777887549 | 25° C | 83% | 1016.7 hPa | 0 mm | - | - | - |
| 1777887244 | 25.56° C | 83% | 1016.6 hPa | 0 mm | - | - | - |
| 1777886940 | 25.56° C | 83% | 1016.4 hPa | 0 mm | - | - | - |
| 1777886635 | 25.56° C | 83% | 1016.4 hPa | 0 mm | - | - | - |
* Rain latest hour (hover to see other rain measurements)
** Current wind speed in m/s (hover to see current wind gust speed)